Weather History for Clinton, IA

Change the Weather History Date:

Sunday, October 31, 2010

  Actual Average Record
Temperature  
Mean Temperature 40 °F -  
Max Temperature 51 °F 60 °F 84 °F (1950)
Min Temperature 30 °F 41 °F 23 °F (1993)
Degree Days  
Heating Degree Days 24    
Moisture  
Dew Point 28 °F    
Average Humidity 64    
Maximum Humidity 93    
Minimum Humidity 35    
Precipitation  
Precipitation 0.00 in - - ()
Sea Level Pressure  
Sea Level Pressure 30.20 in    
Wind  
Wind Speed 7 mph (NE)    
Max Wind Speed 13 mph    
Max Gust Speed -    
Visibility 10 miles    
Events      
Averages and records for this station are not official NWS values.
T = Trace of Precipitation, MM = Missing Value Source: NWS Daily Summary

Daily Weather History Graph

Daily Weather History Graph

Search for Another Location

Airport:

Trip Planner

Search our weather history database for the weather conditions in past years. The results will help you decide how hot, cold, wet, or windy it might be!

Date:

Astronomy

Oct. 31, 2010 Rise Set
Actual Time 7:32 AM CDT 5:56 PM CDT
Civil Twilight 7:03 AM CDT 6:25 PM CDT
Nautical Twilight 6:30 AM CDT 6:58 PM CDT
Astronomical Twilight 5:58 AM CDT 7:30 PM CDT
Moon 12:52 AM CDT (10/31) 2:38 PM CDT (10/31)
Length of Visible Light 11h 22m
Length of Day
10h 24m
Last Quarter, 37% of the Moon is Illuminated
Oct 31
Last Quarter
Nov 5
New
Nov 13
First Quarter
Nov 21
Full
Nov 28
Last Quarter

Hourly Weather History & Observations

Time (CDT) Temp. Windchill Dew Point Humidity Pressure Visibility Wind Dir Wind Speed Gust Speed Precip Events Conditions
12:15 AM 39.2 °F 34.2 °F 32.0 °F 75% 30.04 in 10.0 mi NNE 6.9 mph - N/A   Clear
12:35 AM 37.4 °F 31.4 °F 32.0 °F 81% 30.04 in 10.0 mi NNE 8.1 mph - N/A   Clear
12:55 AM 37.4 °F 33.8 °F 30.2 °F 75% 30.05 in 10.0 mi NE 4.6 mph - N/A   Clear
1:15 AM 37.4 °F 32.1 °F 30.2 °F 75% 30.06 in 10.0 mi NE 6.9 mph - N/A   Clear
1:35 AM 35.6 °F 32.8 °F 32.0 °F 87% 30.07 in 10.0 mi ENE 3.5 mph - N/A   Clear
1:55 AM 37.4 °F 33.8 °F 30.2 °F 75% 30.07 in 10.0 mi ENE 4.6 mph - N/A   Clear
2:15 AM 37.4 °F 34.9 °F 30.2 °F 75% 30.09 in 10.0 mi NE 3.5 mph - N/A   Clear
2:35 AM 33.8 °F 27.7 °F 28.4 °F 81% 30.09 in 10.0 mi NNE 6.9 mph - N/A   Clear
2:55 AM 33.8 °F - 30.2 °F 87% 30.10 in 10.0 mi Calm Calm - N/A   Clear
3:15 AM 33.8 °F 27.7 °F 30.2 °F 87% 30.10 in 10.0 mi NNE 6.9 mph - N/A   Clear
3:35 AM 33.8 °F 27.0 °F 30.2 °F 87% 30.10 in 10.0 mi NNE 8.1 mph - N/A   Clear
3:55 AM - - - N/A% 30.10 in 10.0 mi North 8.1 mph - N/A   Clear
4:15 AM - - - N/A% 30.11 in 10.0 mi North 9.2 mph - N/A   Clear
4:35 AM - - - N/A% 30.12 in 10.0 mi North 9.2 mph - N/A   Clear
4:55 AM 32.0 °F 25.6 °F 28.4 °F 87% 30.13 in 10.0 mi North 6.9 mph - N/A   Clear
5:15 AM 32.0 °F 25.6 °F 28.4 °F 87% 30.13 in 10.0 mi North 6.9 mph - N/A   Clear
5:35 AM 30.2 °F 24.3 °F 28.4 °F 93% 30.14 in 10.0 mi North 5.8 mph - N/A   Clear
5:55 AM - - - N/A% 30.14 in 10.0 mi NNE 4.6 mph - N/A   Clear
6:15 AM - - - N/A% 30.15 in 10.0 mi NE 3.5 mph - N/A   Clear
6:55 AM 30.2 °F - 26.6 °F 86% 30.17 in 10.0 mi Calm Calm - N/A   Clear
7:15 AM 32.0 °F 27.5 °F 28.4 °F 87% 30.18 in 10.0 mi NNE 4.6 mph - N/A   Clear
7:35 AM 32.0 °F 26.4 °F 28.4 °F 87% 30.19 in 10.0 mi North 5.8 mph - N/A   Clear
7:55 AM 32.0 °F 25.6 °F 28.4 °F 87% 30.19 in 10.0 mi North 6.9 mph - N/A   Clear
8:15 AM 33.8 °F 28.6 °F 30.2 °F 87% 30.20 in 10.0 mi North 5.8 mph - N/A   Clear
8:35 AM 33.8 °F 29.6 °F 30.2 °F 87% 30.21 in 10.0 mi North 4.6 mph - N/A   Clear
8:55 AM 35.6 °F 31.7 °F 32.0 °F 87% 30.22 in 10.0 mi NNE 4.6 mph - N/A   Clear
9:15 AM 37.4 °F 33.8 °F 32.0 °F 81% 30.22 in 10.0 mi NE 4.6 mph - N/A   Clear
9:35 AM - - - N/A% 30.22 in 10.0 mi ENE 8.1 mph - N/A   Clear
9:55 AM 39.2 °F 33.0 °F 30.2 °F 70% 30.24 in 10.0 mi ENE 9.2 mph - N/A   Clear
10:15 AM 42.8 °F 37.5 °F 28.4 °F 57% 30.24 in 10.0 mi ENE 9.2 mph - N/A   Clear
10:35 AM 42.8 °F 38.0 °F 28.4 °F 57% 30.24 in 10.0 mi East 8.1 mph - N/A   Clear
10:55 AM 44.6 °F 40.7 °F 28.4 °F 53% 30.25 in 10.0 mi East 6.9 mph - N/A   Clear
11:15 AM 44.6 °F 40.2 °F 26.6 °F 49% 30.25 in 10.0 mi East 8.1 mph - N/A   Clear
11:35 AM 44.6 °F 40.2 °F 28.4 °F 53% 30.26 in 10.0 mi ENE 8.1 mph - N/A   Clear
11:55 AM 46.4 °F 41.9 °F 26.6 °F 46% 30.26 in 10.0 mi NE 9.2 mph - N/A   Clear
12:15 PM 46.4 °F 41.9 °F 26.6 °F 46% 30.26 in 10.0 mi ENE 9.2 mph - N/A   Clear
12:35 PM 48.2 °F - 26.6 °F 43% 30.26 in 10.0 mi East 8.1 mph - N/A   Clear
12:55 PM 48.2 °F - 26.6 °F 43% 30.25 in 10.0 mi ENE 11.5 mph - N/A   Clear
1:15 PM 50.0 °F - 24.8 °F 37% 30.25 in 10.0 mi ENE 9.2 mph - N/A   Clear
1:35 PM 50.0 °F - 24.8 °F 37% 30.24 in 10.0 mi ENE 12.7 mph - N/A   Clear
1:55 PM 51.8 °F - 24.8 °F 35% 30.24 in 10.0 mi NE 10.4 mph - N/A   Clear
2:15 PM 51.8 °F - 24.8 °F 35% 30.24 in 10.0 mi ENE 10.4 mph - N/A   Clear
2:35 PM - - - N/A% 30.23 in 10.0 mi East 8.1 mph - N/A   Clear
2:55 PM 51.8 °F - 24.8 °F 35% 30.23 in 10.0 mi ENE 11.5 mph - N/A   Clear
3:15 PM 51.8 °F - 24.8 °F 35% 30.22 in 10.0 mi NE 9.2 mph - N/A   Clear
3:35 PM 51.8 °F - 26.6 °F 38% 30.23 in 10.0 mi ENE 5.8 mph - N/A   Clear
3:55 PM 51.8 °F - 26.6 °F 38% 30.23 in 10.0 mi ENE 10.4 mph - N/A   Clear
4:15 PM 50.0 °F - 24.8 °F 37% 30.23 in 10.0 mi ENE 8.1 mph - N/A   Clear
4:35 PM 48.2 °F - 26.6 °F 43% 30.23 in 10.0 mi ENE 9.2 mph - N/A   Clear
4:55 PM 46.4 °F 42.4 °F 26.6 °F 46% 30.23 in 10.0 mi ENE 8.1 mph - N/A   Clear
5:15 PM 44.6 °F 41.4 °F 26.6 °F 49% 30.24 in 10.0 mi ENE 5.8 mph - N/A   Clear
5:35 PM 44.6 °F 41.4 °F 26.6 °F 49% 30.24 in 10.0 mi ENE 5.8 mph - N/A   Clear
5:55 PM 42.8 °F 38.0 °F 26.6 °F 53% 30.24 in 10.0 mi NE 8.1 mph - N/A   Clear
6:15 PM 41.0 °F 36.4 °F 26.6 °F 57% 30.25 in 10.0 mi ENE 6.9 mph - N/A   Clear
6:35 PM 39.2 °F 35.0 °F 28.4 °F 65% 30.26 in 10.0 mi ENE 5.8 mph - N/A   Clear
6:55 PM 39.2 °F 35.0 °F 28.4 °F 65% 30.26 in 10.0 mi NE 5.8 mph - N/A   Clear
7:15 PM 39.2 °F 35.0 °F 28.4 °F 65% 30.27 in 10.0 mi ENE 5.8 mph - N/A   Clear
7:35 PM 39.2 °F 35.0 °F 28.4 °F 65% 30.28 in 10.0 mi ENE 5.8 mph - N/A   Clear
7:55 PM 37.4 °F 32.1 °F 28.4 °F 70% 30.28 in 10.0 mi ENE 6.9 mph - N/A   Clear
8:15 PM 37.4 °F 32.8 °F 28.4 °F 70% 30.27 in 10.0 mi East 5.8 mph - N/A   Clear
8:35 PM 37.4 °F 32.8 °F 28.4 °F 70% 30.28 in 10.0 mi ENE 5.8 mph - N/A   Clear
8:55 PM 39.2 °F 35.0 °F 28.4 °F 65% 30.29 in 10.0 mi ENE 5.8 mph - N/A   Clear
9:15 PM 39.2 °F 35.9 °F 28.4 °F 65% 30.30 in 10.0 mi ENE 4.6 mph - N/A   Clear
9:35 PM 37.4 °F 33.8 °F 28.4 °F 70% 30.30 in 10.0 mi ENE 4.6 mph - N/A   Clear
9:55 PM 37.4 °F 32.1 °F 28.4 °F 70% 30.31 in 10.0 mi ENE 6.9 mph - N/A   Clear
10:15 PM 37.4 °F 32.1 °F 28.4 °F 70% 30.32 in 10.0 mi ENE 6.9 mph - N/A   Clear
10:35 PM 35.6 °F 31.7 °F 28.4 °F 75% 30.33 in 10.0 mi ENE 4.6 mph - N/A   Clear
10:55 PM 37.4 °F 33.8 °F 28.4 °F 70% 30.34 in 10.0 mi NE 4.6 mph - N/A   Clear
11:15 PM 37.4 °F 32.8 °F 28.4 °F 70% 30.35 in 10.0 mi ENE 5.8 mph - N/A   Clear
11:35 PM 35.6 °F 29.9 °F 28.4 °F 75% 30.35 in 10.0 mi ENE 6.9 mph - N/A   Clear
11:55 PM 35.6 °F 29.9 °F 26.6 °F 70% 30.35 in 10.0 mi ENE 6.9 mph - N/A   Clear